sat.trackr.live / text

‹ back to catalog

STARLINK-36917

NORAD 68059 · 2026-041V

PAYLOAD ACTIVE UNKNOWN

§ Identity

Operator
Country
US
Launch date
2026-03-02
Launch site
AFETR
Launch vehicle
Mass (kg)
RCS (m²)

Purposes: comms

External: N2YO · Heavens-Above · Gunter

§ Orbital elements

Epoch: 2026-05-25T03:18:23.925024Z

Period
93.85 min
Inclination
53.1602°
Eccentricity
0.0001156
Mean motion
15.34406818 rev/d
Perigee alt
461.9 km
Apogee alt
463.5 km
Semi-major
6,840.8 km
B*
5.4969e-4
RAAN
53.3054°
Arg perigee
81.2441°
Mean anomaly
278.8692°
Rev number
1,311

§ Raw data

STARLINK-369171 68059U 26041V   26145.13777691  .00018245  00000+0  54969-3 0  99952 68059  53.1602  53.3054 0001156  81.2441 278.8692 15.34406818 13118

JSON: /api/v1/satellites/68059 · /tle

For live sub-satellite position, see the globe view (requires WebGL).

§ Visibility from observer

Set your observer location to see the next 7 days of passes ≥ 10°. The values pass through the URL so the page stays shareable.

No JS? Fill the form by hand. The geolocation button needs JavaScript.